K0CPM-2 Weather Reports


Display with metric or nautical units.
time (UTC)temp
F
wind
direction
speed
MPH
gust
MPH
rain 1hr
in
rain 24hr
in
rain mn
in
humidity
%
barometer
mb
20260508151523 73 186 1.0 8.0 0.00 0.00 0.00 87 1011.4
20260508150014 72 193 2.0 5.0 0.00 0.00 0.00 86 1011.3
20260508144514 73 180 0.0 7.0 0.00 0.02 0.00 85 1011.5
20260508143013 74 210 1.0 5.0 0.00 0.02 0.00 83 1011.2
20260508141510 73 181 2.0 5.0 0.00 0.02 0.00 85 1011.0
20260508140009 71 173 0.0 4.0 0.00 0.02 0.00 86 1011.3
20260508134508 71 169 0.0 3.0 0.00 0.03 0.00 86 1011.4
20260508133007 70 178 0.0 4.0 0.00 0.03 0.00 86 1011.4
20260508131507 70 146 0.0 3.0 0.00 0.03 0.00 87 1011.4
20260508130006 70 175 1.0 4.0 0.00 0.03 0.00 87 1011.8
20260508124506 70 194 0.0 3.0 0.00 0.03 0.00 88 1012.2
20260508123006 70 139 0.0 3.0 0.00 0.03 0.00 88 1012.1
20260508121503 70 187 1.0 4.0 0.00 0.03 0.00 88 1011.8
20260508120004 70 169 0.0 3.0 0.00 0.03 0.00 88 1011.2
20260508114502 70 153 0.0 3.0 0.00 0.03 0.00 87 1011.2
20260508113002 70 173 0.0 2.0 0.00 0.03 0.00 87 1011.4
20260508111601 70 188 0.0 1.0 0.00 0.03 0.00 88 1012.0
20260508110128 69 187 0.0 2.0 0.00 0.03 0.00 89 1011.7
20260508104604 69 156 0.0 3.0 0.00 0.03 0.00 89 1011.6
20260508103058 69 175 0.0 2.0 0.00 0.03 0.00 89 1011.0
20260508101600 69 169 0.0 2.0 0.00 0.03 0.00 89 1010.7
20260508100054 69 173 0.0 3.0 0.00 0.03 0.00 89 1010.4
20260508094556 70 183 1.0 3.0 0.00 0.03 0.00 89 1010.5
20260508093101 70 168 0.0 3.0 0.00 0.03 0.00 89 1010.6
20260508091551 70 146 0.0 3.0 0.00 0.03 0.00 89 1010.5
20260508090106 70 188 1.0 4.0 0.00 0.03 0.00 89 1010.4
20260508084548 71 147 0.0 2.0 0.00 0.03 0.00 89 1010.6
20260508083047 71 165 0.0 2.0 0.00 0.03 0.00 89 1010.4
20260508081548 71 174 0.0 2.0 0.00 0.03 0.00 89 1010.3
20260508080051 71 173 0.0 1.0 0.00 0.03 0.00 88 1010.4
20260508074544 71 169 0.0 1.0 0.00 0.03 0.00 89 1010.9
20260508073043 72 156 0.0 1.0 0.00 0.03 0.00 89 1010.5
20260508071542 72 155 0.0 0.0 0.00 0.03 0.00 88 1010.5
20260508070043 72 165 0.0 1.0 0.00 0.03 0.00 88 1010.4
20260508064539 72 153 0.0 1.0 0.00 0.03 0.00 89 1011.0
20260508063039 72 173 0.0 0.0 0.00 0.03 0.00 88 1010.9
20260508061537 72 155 0.0 0.0 0.00 0.03 0.00 88 1010.9
20260508060031 72 169 0.0 0.0 0.00 0.03 0.00 88 1010.9
20260508054527 72 162 0.0 1.0 0.00 0.03 0.00 89 1011.4
20260508053023 72 165 0.0 0.0 0.00 0.03 0.00 89 1011.3
20260508051519 72 183 0.0 1.0 0.00 0.03 0.00 89 1011.4
20260508050016 72 166 0.0 0.0 0.00 0.03 0.00 89 1011.6
20260508044515 72 156 0.0 0.0 0.00 0.03 0.03 89 1011.6
20260508043015 72 166 0.0 1.0 0.00 0.03 0.03 88 1011.8
20260508041512 73 177 0.0 2.0 0.00 0.03 0.03 87 1011.9
20260508040013 73 176 0.0 1.0 0.00 0.03 0.03 87 1011.6
20260508034516 73 167 0.0 3.0 0.00 0.03 0.03 87 1012.1
20260508033017 74 158 0.0 2.0 0.00 0.03 0.03 86 1012.0
20260508031510 74 191 0.0 3.0 0.00 0.03 0.03 85 1012.3
20260508030008 74 165 0.0 1.0 0.00 0.03 0.03 85 1011.9
20260508024510 75 174 0.0 4.0 0.00 0.03 0.03 84 1011.7
20260508023016 75 167 0.0 3.0 0.00 0.03 0.03 84 1011.6
20260508021506 75 184 0.0 3.0 0.00 0.03 0.03 85 1011.4
20260508020005 75 178 0.0 0.0 0.00 0.03 0.03 85 1011.4
20260508014506 75 155 0.0 0.0 0.00 0.03 0.03 85 1011.0
20260508013004 75 169 0.0 1.0 0.00 0.03 0.03 86 1011.1
20260508011503 75 160 0.0 0.0 0.00 0.03 0.03 87 1010.8
20260508010002 75 113 0.0 4.0 0.00 0.03 0.03 86 1010.9
20260508004504 75 176 0.0 2.0 0.00 0.03 0.03 86 1010.4
20260508003001 76 158 0.0 1.0 0.00 0.03 0.03 86 1010.5
20260508001501 76 145 0.0 3.0 0.00 0.03 0.03 85 1010.5
20260507234600 76 124 0.0 2.0 0.00 0.03 0.03 84 1010.5
20260507233103 76 149 0.0 1.0 0.00 0.03 0.03 83 1010.3
20260507231601 76 172 0.0 2.0 0.00 0.03 0.03 82 1010.4
20260507230100 77 166 0.0 2.0 0.00 0.03 0.03 80 1010.6
20260507224605 78 155 0.0 2.0 0.00 0.03 0.03 78 1010.5
20260507223100 79 159 0.0 3.0 0.00 0.03 0.03 76 1010.2
20260507221555 79 173 0.0 1.0 0.00 0.03 0.03 78 1010.3
20260507220052 79 172 0.0 4.0 0.00 0.03 0.03 79 1010.1
20260507214552 77 149 0.0 1.0 0.00 0.03 0.03 81 1010.1
20260507213051 76 160 0.0 1.0 0.00 0.03 0.03 83 1010.0
20260507211551 75 174 0.0 1.0 0.00 0.03 0.03 84 1010.3
20260507210112 75 184 0.0 2.0 0.00 0.03 0.03 85 1010.3
20260507204553 74 129 0.0 1.0 0.00 0.03 0.03 85 1010.4
20260507203051 74 169 0.0 3.0 0.00 0.03 0.03 86 1010.4
20260507201546 74 156 0.0 2.0 0.00 0.03 0.03 85 1010.5
20260507200100 74 163 0.0 4.0 0.00 0.03 0.03 84 1010.5
20260507194546 75 117 0.0 2.0 0.00 0.03 0.03 84 1010.6
20260507193106 75 190 0.0 3.0 0.00 0.03 0.03 84 1010.7
20260507191553 75 178 0.0 3.0 0.00 0.03 0.03 85 1010.8
20260507190044 74 118 0.0 2.0 0.00 0.03 0.03 87 1010.9
20260507184543 74 188 0.0 3.0 0.00 0.03 0.03 84 1011.0
20260507183049 74 175 0.0 4.0 0.00 0.03 0.03 87 1011.1
20260507181541 73 129 0.0 2.0 0.00 0.03 0.03 89 1011.4
20260507180040 71 183 0.0 4.0 0.00 0.03 0.03 91 1011.4
20260507174540 71 186 0.0 3.0 0.00 0.03 0.03 92 1011.5
20260507173043 71 152 1.0 3.0 0.00 0.03 0.03 92 1011.5
20260507171541 71 152 0.0 4.0 0.00 0.03 0.03 92 1011.7
20260507170038 72 81 1.0 5.0 0.00 0.03 0.03 90 1011.8
20260507164539 72 138 0.0 2.0 0.00 0.03 0.03 91 1011.8
20260507163038 72 147 0.0 2.0 0.00 0.03 0.03 92 1011.7
20260507161536 72 135 0.0 2.0 0.00 0.03 0.03 93 1011.8
20260507160056 71 83 0.0 3.0 0.00 0.03 0.03 93 1011.9
20260507154536 71 155 0.0 4.0 0.00 0.03 0.03 94 1011.8
20260507153034 72 129 0.0 4.0 0.00 0.03 0.03 94 1011.7